Weather History for KRPJ - July, 2013

Change the Weather History Date:

Wednesday, July 24, 2013

  Actual Average (KRFD) Record (KRFD)
Temperature  
Mean Temperature 62 °F 74 °F  
Max Temperature 73 °F 84 °F 107 °F (1934)
Min Temperature 51 °F 63 °F 51 °F (2000)
Degree Days  
Heating Degree Days 3 0  
Month to date heating degree days 0  
Since 1 June heating degree days 31  
Since 1 July heating degree days 0  
Cooling Degree Days 0 9  
Month to date cooling degree days 216  
Year to date cooling degree days 446  
Since 1 June cooling degree days 391  
Growing Degree Days 12 (Base 50)    
Moisture  
Dew Point 52 °F    
Average Humidity 71    
Maximum Humidity 95    
Minimum Humidity 41    
Precipitation  
Precipitation 0.00 in 0.14 in 2.81 in (2010)
Month to date precipitation 3.02  
Year to date precipitation 20.14  
Snow  
Snow 0.00 in 0.00 in 0.00 in ()
Month to date snowfall 0.0  
Since 1 June snowfall 0.0  
Since 1 July snowfall 0.0  
Snow Depth -    
Sea Level Pressure  
Sea Level Pressure 30.05 in    
Wind  
Wind Speed 4 mph (NE)    
Max Wind Speed 9 mph    
Max Gust Speed -    
Visibility 10 miles    
Events      
T = Trace of Precipitation, MM = Missing Value Source: NWS Daily Summary

Daily Weather History Graph

Daily Weather History Graph

Search for Another Location

Airport or City:

Trip Planner

Search our weather history database for the weather conditions in past years. The results will help you decide how hot, cold, wet, or windy it might be!

Date:

Astronomy

Jul. 24, 2013 Rise Set
Actual Time 5:42 AM CDT 8:22 PM CDT
Civil Twilight 5:10 AM CDT 8:54 PM CDT
Nautical Twilight 4:29 AM CDT 9:35 PM CDT
Astronomical Twilight 3:43 AM CDT 10:20 PM CDT
Moon 9:24 PM CDT (7/24) 8:05 AM CDT (7/24)
Length of Visible Light 15h 44m
Length of Day
14h 40m
Waning Gibbous, 94% of the Moon is Illuminated
Jul 24
Waning Gibbous
Jul 29
Last Quarter
Aug 6
New
Aug 14
First Quarter
Aug 20
Full

Hourly Weather History & Observations

Time (CDT) Temp. Dew Point Humidity Pressure Visibility Wind Dir Wind Speed Gust Speed Precip Events Conditions
12:15 AM 58.1 °F 54.5 °F 88% 30.00 in 10.0 mi ENE 5.8 mph - N/A   Clear
12:35 AM 57.0 °F 54.0 °F 89% 30.01 in 10.0 mi ENE 4.6 mph - N/A   Clear
12:55 AM 56.8 °F 54.5 °F 92% 30.01 in 10.0 mi ENE 4.6 mph - N/A   Clear
1:15 AM 56.3 °F 54.0 °F 92% 30.01 in 10.0 mi NE 3.5 mph - N/A   Clear
1:35 AM 56.1 °F 53.8 °F 92% 30.01 in 10.0 mi ENE 5.8 mph - N/A   Clear
1:55 AM 55.9 °F 53.4 °F 91% 30.01 in 10.0 mi NE 4.6 mph - N/A   Clear
2:15 AM 54.7 °F 52.7 °F 93% 30.01 in 10.0 mi NE 4.6 mph - N/A   Clear
2:35 AM 55.0 °F 52.9 °F 92% 30.01 in 10.0 mi NE 3.5 mph - N/A   Clear
2:55 AM 54.9 °F 52.7 °F 92% 30.02 in 10.0 mi NNE 3.5 mph - N/A   Clear
3:15 AM 54.0 °F 51.8 °F 92% 30.02 in 10.0 mi Calm Calm - N/A   Clear
3:35 AM 53.4 °F 51.4 °F 93% 30.01 in 10.0 mi North 3.5 mph - N/A   Clear
3:55 AM 53.6 °F 51.8 °F 94% 30.01 in 10.0 mi North 3.5 mph - N/A   Clear
4:15 AM 52.7 °F 50.9 °F 94% 30.02 in 10.0 mi Calm Calm - N/A   Clear
4:35 AM 53.1 °F 51.6 °F 95% 30.03 in 10.0 mi Calm Calm - N/A   Clear
4:55 AM 52.2 °F 50.4 °F 94% 30.03 in 10.0 mi Calm Calm - N/A   Clear
5:15 AM 52.7 °F 50.9 °F 94% 30.04 in 10.0 mi Calm Calm - N/A   Clear
5:35 AM 52.2 °F 50.7 °F 95% 30.05 in 10.0 mi Calm Calm - N/A   Clear
5:55 AM 51.8 °F 50.2 °F 94% 30.04 in 10.0 mi Calm Calm - N/A   Clear
6:15 AM 51.6 °F 50.2 °F 95% 30.05 in 10.0 mi Calm Calm - N/A   Clear
6:35 AM 53.8 °F 52.2 °F 94% 30.06 in 10.0 mi Calm Calm - N/A   Clear
6:55 AM 55.4 °F 53.4 °F 93% 30.06 in 10.0 mi Calm Calm - N/A   Clear
7:15 AM 56.8 °F 54.3 °F 91% 30.06 in 10.0 mi Calm Calm - N/A   Clear
7:35 AM 59.2 °F 55.0 °F 86% 30.07 in 10.0 mi NNE 6.9 mph - N/A   Clear
7:55 AM 60.6 °F 54.5 °F 80% 30.07 in 10.0 mi NE 5.8 mph - N/A   Clear
8:15 AM 60.4 °F 54.1 °F 80% 30.07 in 10.0 mi NE 6.9 mph - N/A   Clear
8:35 AM 62.1 °F 54.7 °F 77% 30.07 in 10.0 mi NNE 5.8 mph - N/A   Clear
8:55 AM 63.5 °F 53.8 °F 71% 30.07 in 10.0 mi ENE 6.9 mph - N/A   Clear
9:15 AM 63.7 °F 53.1 °F 68% 30.07 in 10.0 mi ENE 9.2 mph - N/A   Clear
9:35 AM 65.5 °F 53.1 °F 64% 30.07 in 10.0 mi ENE 9.2 mph - N/A   Scattered Clouds
9:55 AM 66.0 °F 53.1 °F 63% 30.07 in 10.0 mi ENE 6.9 mph - N/A   Scattered Clouds
10:15 AM 66.6 °F 52.3 °F 60% 30.07 in 10.0 mi NNE 6.9 mph - N/A   Scattered Clouds
10:35 AM 66.4 °F 51.1 °F 58% 30.08 in 10.0 mi NE 9.2 mph - N/A   Scattered Clouds
10:55 AM 66.7 °F 51.3 °F 57% 30.08 in 10.0 mi North 6.9 mph - N/A   Clear
11:15 AM 67.1 °F 51.3 °F 57% 30.08 in 10.0 mi NE 9.2 mph - N/A   Scattered Clouds
11:35 AM 68.9 °F 51.3 °F 53% 30.09 in 10.0 mi ENE 9.2 mph - N/A   Scattered Clouds
11:55 AM 68.7 °F 51.1 °F 53% 30.09 in 10.0 mi NE 5.8 mph - N/A   Scattered Clouds
12:15 PM 69.3 °F 50.2 °F 51% 30.08 in 10.0 mi NE 3.5 mph - N/A   Scattered Clouds
12:35 PM 70.5 °F 50.2 °F 48% 30.08 in 10.0 mi NE 5.8 mph - N/A   Scattered Clouds
12:55 PM 70.7 °F 51.6 °F 51% 30.08 in 10.0 mi North 8.1 mph - N/A   Mostly Cloudy
1:15 PM 70.7 °F 50.5 °F 49% 30.08 in 10.0 mi NE 5.8 mph - N/A   Scattered Clouds
1:35 PM 70.9 °F 50.4 °F 48% 30.07 in 10.0 mi ENE 5.8 mph - N/A   Mostly Cloudy
1:55 PM 70.2 °F 50.4 °F 49% 30.07 in 10.0 mi NE 8.1 mph - N/A   Mostly Cloudy
2:15 PM 72.5 °F 50.4 °F 46% 30.07 in 10.0 mi North 5.8 mph - N/A   Mostly Cloudy
2:35 PM 72.5 °F 50.7 °F 46% 30.06 in 10.0 mi NNE 6.9 mph - N/A   Scattered Clouds
2:55 PM 72.7 °F 51.1 °F 47% 30.06 in 10.0 mi NE 6.9 mph - N/A   Scattered Clouds
3:15 PM 71.6 °F 49.5 °F 45% 30.06 in 10.0 mi Calm Calm - N/A   Scattered Clouds
3:35 PM 73.0 °F 50.0 °F 44% 30.05 in 10.0 mi Calm Calm - N/A   Clear
3:55 PM 73.4 °F 50.7 °F 45% 30.05 in 10.0 mi NNE 6.9 mph - N/A   Scattered Clouds
4:15 PM 73.4 °F 50.7 °F 45% 30.05 in 10.0 mi NE 8.1 mph - N/A   Scattered Clouds
4:35 PM 73.4 °F 49.8 °F 43% 30.05 in 10.0 mi NNE 4.6 mph - N/A   Scattered Clouds
4:55 PM 72.7 °F 50.2 °F 45% 30.04 in 10.0 mi North 4.6 mph - N/A   Scattered Clouds
5:15 PM 73.4 °F 49.6 °F 43% 30.04 in 10.0 mi Calm Calm - N/A   Scattered Clouds
5:35 PM 73.6 °F 48.6 °F 41% 30.05 in 10.0 mi Calm Calm - N/A   Mostly Cloudy
5:55 PM 73.0 °F 49.3 °F 43% 30.05 in 10.0 mi North 4.6 mph - N/A   Scattered Clouds
6:15 PM 72.0 °F 50.0 °F 46% 30.05 in 10.0 mi NNW 4.6 mph - N/A   Clear
6:35 PM 72.0 °F 50.4 °F 46% 30.05 in 10.0 mi North 5.8 mph - N/A   Scattered Clouds
6:55 PM 71.1 °F 51.1 °F 49% 30.05 in 10.0 mi NW 3.5 mph - N/A   Scattered Clouds
7:15 PM 70.0 °F 53.1 °F 55% 30.06 in 10.0 mi Calm Calm - N/A   Clear
7:35 PM 70.0 °F 53.1 °F 55% 30.05 in 10.0 mi ENE 5.8 mph - N/A   Clear
7:55 PM 68.4 °F 54.5 °F 61% 30.05 in 10.0 mi NE 3.5 mph - N/A   Clear
8:15 PM 65.5 °F 55.2 °F 69% 30.05 in 10.0 mi Calm Calm - N/A   Clear
8:35 PM 64.0 °F 55.4 °F 73% 30.05 in 10.0 mi Calm Calm - N/A   Clear
8:55 PM 60.4 °F 55.9 °F 85% 30.05 in 10.0 mi Calm Calm - N/A   Clear
9:15 PM 59.9 °F 55.6 °F 86% 30.05 in 10.0 mi Calm Calm - N/A   Clear
9:35 PM 60.6 °F 55.0 °F 82% 30.06 in 10.0 mi Calm Calm - N/A   Clear
9:55 PM 59.7 °F 54.7 °F 83% 30.06 in 10.0 mi Calm Calm - N/A   Clear
10:15 PM 59.5 °F 54.1 °F 82% 30.06 in 10.0 mi East 3.5 mph - N/A   Clear
10:35 PM 58.3 °F 53.8 °F 85% 30.07 in 10.0 mi SE 4.6 mph - N/A   Clear
10:55 PM 56.7 °F 53.6 °F 89% 30.07 in 10.0 mi SE 4.6 mph - N/A   Clear
11:15 PM 55.8 °F 53.2 °F 91% 30.07 in 10.0 mi SE 4.6 mph - N/A   Clear
11:35 PM 55.2 °F 52.7 °F 91% 30.08 in 10.0 mi SE 3.5 mph - N/A   Clear
11:55 PM 54.7 °F 52.5 °F 92% 30.08 in 10.0 mi Calm Calm - N/A   Clear